Wind_Speed
18 18 17 18 19 14 10 7 7 5 4 4 3 2 2 2 2 2 2 4 4 5 5 6 6 6 6 6 7 7 8 8 10 10 10 10 11 10 11 10 10 10 9 9 8 8 7 6 6
18 17 19 20 15 11 10 9 8 6 5 4 4 4 3 3 3 3 3 4 4 5 5 5 5 6 6 7 7 7 8 9 9 10 9 10 10 10 10 10 10 9 9 8 7 7 6 6 5
18 20 22 16 12 11 11 10 8 7 5 5 5 4 4 4 4 3 3 4 4 5 6 6 6 6 6 7 7 8 8 8 8 9 9 9 9 10 9 9 9 9 8 8 7 7 6 5 5
19 24 20 14 12 12 11 10 9 8 6 5 5 5 5 6 6 5 4 4 5 6 7 7 7 7 7 7 7 7 8 8 8 9 9 9 9 9 9 8 8 8 7 7 6 6 6 5 5
21 21 15 14 13 13 13 12 10 8 8 7 7 5 5 7 7 7 7 7 7 7 8 8 8 7 7 6 6 7 7 8 8 8 8 8 8 8 8 8 7 7 6 5 5 5 5 5 5
22 17 15 14 13 14 14 13 12 10 9 9 8 7 6 8 8 8 8 9 9 8 9 9 8 7 7 7 7 7 7 8 8 8 8 7 8 8 7 7 6 6 5 5 4 4 4 4 4
19 15 15 14 14 14 15 15 13 11 10 9 9 8 8 9 9 9 9 9 9 9 8 8 8 8 8 7 7 8 9 9 8 8 8 7 7 7 7 6 5 5 4 4 3 3 3 3 3
15 12 13 13 13 14 15 15 14 12 11 10 10 10 9 9 9 10 10 10 10 9 9 9 9 9 8 7 8 8 8 8 7 7 7 7 6 6 6 5 5 4 3 2 2 2 2 3 3
12 11 12 12 13 15 15 15 15 13 12 11 11 11 10 11 10 10 10 10 10 10 9 9 9 9 8 9 9 8 8 8 8 7 7 6 6 5 5 4 4 3 3 2 2 2 2 3 3
9 10 11 12 12 14 15 16 16 15 13 13 12 11 11 11 11 11 10 10 10 10 10 9 10 10 10 9 9 8 7 7 7 7 6 6 5 5 4 4 3 3 2 2 2 2 2 2 2
8 10 11 12 12 14 15 16 17 16 15 14 13 12 11 12 12 12 11 11 11 11 11 10 10 10 10 9 9 7 7 7 7 7 6 6 5 5 4 4 3 2 1 1 2 1 1 1 1
8 10 11 13 13 14 15 16 16 16 16 15 13 13 13 13 13 13 12 12 11 11 10 10 10 10 10 9 9 8 7 7 7 7 6 5 5 5 4 4 4 3 2 1 2 1 1 1 1
8 10 11 13 14 15 14 15 16 15 16 15 14 14 14 14 14 14 13 13 12 11 11 10 9 9 9 8 8 8 8 7 6 5 5 5 4 4 4 4 4 3 3 1 1 1 0 1 2
8 10 10 13 13 14 14 15 16 15 15 14 14 14 14 14 14 13 13 13 13 12 11 10 10 9 9 8 8 8 8 8 7 6 6 5 5 4 4 4 4 3 2 2 1 1 1 2 3
8 9 9 11 12 13 13 14 14 15 14 13 13 14 14 14 13 13 13 13 12 12 11 11 10 10 9 9 9 9 8 8 7 7 7 6 5 4 4 4 4 3 3 2 2 2 2 3 4
5 4 5 8 10 12 12 12 13 13 13 13 13 13 13 13 13 12 12 12 12 11 11 11 10 10 9 9 9 8 8 7 7 7 7 6 6 5 5 4 4 3 4 3 3 3 4 4 4
4 2 3 5 8 9 10 11 12 13 12 12 12 12 13 12 12 12 11 11 11 11 10 10 10 9 9 8 8 8 7 7 7 7 7 7 6 6 5 4 4 4 4 4 4 4 5 5 5
3 0 1 1 3 6 8 9 11 12 12 11 11 12 12 12 12 12 11 11 10 10 10 9 9 9 8 8 8 8 8 8 8 8 8 8 7 7 6 5 4 4 4 4 5 5 6 5 5
4 4 3 2 1 3 6 8 10 10 11 11 10 10 11 11 11 11 11 11 10 10 9 9 9 9 8 8 9 9 9 9 8 8 8 8 8 8 7 6 5 5 5 5 5 5 6 6 6
8 6 4 2 2 3 5 7 9 9 9 10 10 9 9 10 10 10 10 10 9 9 9 9 9 9 9 8 9 9 9 9 9 8 8 8 9 9 8 7 6 6 6 6 7 7 7 8 8
9 7 6 4 5 6 5 5 7 8 8 8 8 8 8 8 9 9 9 10 9 8 8 8 8 8 8 8 9 9 9 9 9 9 9 9 10 10 9 8 8 8 8 8 9 8 8 8 8
10 9 7 6 6 7 7 6 6 8 8 7 7 7 7 7 7 8 8 9 9 8 8 8 8 8 9 9 9 9 9 9 9 9 9 9 10 10 10 10 9 9 9 9 9 10 10 10 10
13 11 9 8 8 9 8 7 9 7 7 7 7 7 6 6 7 7 8 8 8 8 9 9 8 8 9 9 9 9 10 10 10 9 9 9 10 10 10 10 10 10 10 10 10 10 11 11 11
13 12 12 11 10 10 8 7 8 8 8 7 7 6 5 5 6 7 6 7 7 8 8 9 9 8 8 8 9 9 10 10 10 10 9 9 9 9 10 10 10 11 11 11 11 12 12 12 11
16 14 12 13 13 11 9 10 11 10 10 8 7 5 4 4 5 6 6 6 6 7 8 8 8 8 8 8 9 9 10 10 10 10 10 10 10 10 10 10 11 11 12 12 12 12 12 12 12
19 17 15 13 11 10 11 12 12 12 10 8 8 6 5 5 5 5 6 6 5 6 7 8 8 9 9 9 10 10 10 11 11 11 10 11 11 10 10 11 11 12 12 12 12 12 12 13 13
20 19 17 16 15 14 15 13 11 12 11 8 8 7 6 6 6 6 6 6 6 6 7 7 8 9 10 10 10 10 11 11 11 11 11 11 11 11 10 11 12 12 13 13 13 13 13 13 13
21 20 19 18 16 16 15 13 13 15 14 10 9 10 8 7 7 7 7 7 7 7 8 8 9 9 10 10 11 11 12 12 11 11 12 12 11 11 11 12 12 13 14 14 13 13 13 14 14
22 21 20 19 18 17 16 14 14 14 14 12 10 11 9 9 9 9 8 8 8 8 9 9 10 10 11 11 11 12 12 12 12 12 12 12 12 11 12 13 14 14 14 14 14 14 14 14 14
22 23 21 21 21 21 19 16 15 15 14 13 12 11 12 11 11 11 10 9 8 9 10 11 11 11 11 11 11 12 12 12 12 13 14 14 13 13 14 14 15 15 15 15 15 14 15 15 16
Wind_Direction
64 64 60 54 45 36 31 35 36 41 41 47 42 46 51 54 78 90 95 94 96 93 88 95 100 104 102 113 123 123 124 125 124 125 128 130 129 127 125 123 121 119 121 125 126 125 129 128 127
66 63 59 51 41 30 32 31 35 35 39 40 42 52 62 65 79 87 92 99 101 98 96 97 104 110 109 114 122 124 122 126 125 125 128 131 135 132 132 130 126 121 121 122 126 128 128 129 129
68 59 55 45 31 28 30 32 36 36 38 45 55 63 70 75 79 82 84 88 97 99 98 100 103 111 115 119 123 121 121 126 125 124 129 126 126 131 132 132 128 125 123 125 129 134 131 131 132
65 55 49 42 33 30 29 35 36 36 39 49 60 72 80 78 82 80 72 84 89 100 103 106 105 107 116 121 121 122 124 127 128 127 129 128 125 123 125 128 123 125 126 127 129 132 137 141 141
62 57 43 41 30 29 34 40 41 38 42 55 63 71 79 76 84 85 79 77 83 95 99 105 105 106 109 117 121 118 119 123 125 128 129 130 127 123 118 119 124 127 123 124 130 134 138 148 151
60 54 42 37 30 30 37 39 40 40 46 56 61 67 75 83 85 86 83 84 87 95 99 97 97 101 101 105 114 119 115 121 120 125 129 127 124 118 117 112 113 116 116 115 126 133 139 148 152
62 54 46 34 29 32 36 38 40 44 48 54 61 65 72 82 81 84 85 88 89 93 93 92 93 96 96 100 105 112 114 121 120 118 122 126 124 115 109 111 111 115 116 121 124 120 128 136 136
66 55 52 38 32 36 39 38 43 48 49 53 60 64 69 76 78 84 87 88 89 90 90 90 91 96 95 98 99 110 112 116 114 108 113 116 115 112 111 107 103 103 111 123 119 127 140 129 125
66 56 51 41 37 42 43 42 45 49 51 53 60 65 67 75 79 81 84 88 89 88 86 85 87 89 92 96 92 96 101 105 105 105 107 109 111 115 119 112 105 94 81 79 89 106 122 133 134
57 59 52 46 42 43 45 45 46 49 54 57 63 69 72 73 77 80 82 85 87 86 84 86 86 86 89 88 87 91 97 101 98 98 99 103 106 110 107 102 94 78 76 77 90 105 124 139 146
52 58 57 53 45 45 45 45 46 50 55 59 63 67 70 73 77 79 77 78 82 84 85 86 87 85 84 83 84 86 87 93 89 89 88 87 91 94 88 84 84 74 77 66 85 106 147 170 187
59 60 58 56 50 47 45 45 46 51 55 58 65 66 71 75 76 78 78 79 80 81 82 83 83 82 81 79 80 82 83 81 79 81 80 81 82 82 78 72 75 70 64 65 76 70 148 217 280
58 54 55 53 51 50 48 47 46 51 53 56 62 63 70 74 75 77 79 79 78 78 78 81 82 78 76 74 76 76 76 73 72 75 77 76 74 65 60 59 64 58 52 40 22 9 304 283 286
63 51 50 46 45 43 43 44 43 50 52 56 59 62 66 70 72 73 75 75 74 75 74 74 76 75 72 68 67 69 70 69 68 68 66 64 62 58 53 45 43 49 43 31 340 307 282 278 284
65 52 43 40 40 34 36 39 36 43 48 52 56 58 61 63 65 66 66 69 69 69 67 66 66 68 66 63 61 63 62 61 58 55 50 47 43 38 28 20 18 25 16 5 347 332 323 306 294
63 48 43 30 28 25 27 31 33 37 41 47 51 52 57 60 62 62 61 61 61 62 62 62 62 61 59 57 56 55 54 51 45 41 38 35 28 20 11 3 2 7 3 360 348 341 333 320 311
84 28 27 31 20 19 25 24 27 32 34 39 47 48 50 55 57 56 57 57 57 58 58 57 57 57 55 49 47 46 43 40 39 36 33 28 21 11 4 3 7 360 358 352 341 335 327 322 315
143 157 349 15 11 14 19 22 25 25 29 33 39 45 48 52 54 53 53 54 55 54 54 54 52 52 51 45 40 37 33 34 35 33 28 26 22 14 9 5 7 2 350 339 340 337 324 317 314
188 208 230 229 295 12 13 15 19 20 20 25 33 40 42 46 46 47 48 49 50 50 51 50 48 46 43 40 38 35 32 30 29 27 27 27 23 19 16 11 3 357 348 340 340 335 329 325 322
204 210 225 266 299 325 355 354 3 10 15 17 23 32 35 35 38 40 41 42 44 44 43 43 43 41 39 38 36 35 33 33 33 32 29 26 23 17 15 11 359 348 344 343 344 342 339 337 333
214 214 213 227 269 298 313 318 340 1 8 7 15 22 25 30 32 33 35 34 35 38 38 38 38 37 34 32 32 31 31 31 29 28 27 24 21 18 18 14 5 357 351 345 342 339 342 338 333
222 216 209 219 254 278 282 293 320 338 346 351 1 12 20 24 27 29 31 31 31 33 33 34 34 34 30 30 29 27 26 26 23 21 20 19 16 15 15 16 14 10 3 357 348 343 342 341 337
221 216 213 219 240 257 272 278 292 297 319 334 346 356 4 15 21 23 26 27 29 30 31 30 29 28 27 26 25 23 22 21 19 16 13 11 10 10 10 11 12 9 3 359 354 349 345 343 341
226 225 221 221 233 243 257 262 270 278 298 316 329 333 341 352 7 13 16 19 22 23 26 26 25 23 21 20 20 17 15 13 10 8 8 7 6 5 3 2 0 2 359 355 353 351 347 345 341
230 229 228 229 238 238 243 252 259 270 281 295 303 307 317 323 337 346 356 6 9 14 18 20 20 18 15 13 12 10 6 6 5 4 3 1 0 360 358 356 357 356 353 350 349 348 348 346 343
227 229 231 236 245 250 247 249 261 269 273 282 290 290 289 302 317 328 338 349 353 359 5 8 8 6 6 5 5 2 360 358 357 356 356 354 352 352 352 351 351 352 351 348 348 346 344 343 341
230 228 232 239 241 245 251 256 261 265 271 273 283 291 288 298 305 309 317 327 332 338 345 350 351 353 355 355 355 354 353 351 350 351 351 350 348 347 346 347 346 346 345 344 343 343 342 341 340
229 229 229 231 239 241 243 249 252 258 262 268 279 288 291 297 292 293 305 308 313 319 325 332 336 339 341 345 346 346 345 344 344 345 346 345 342 342 342 342 342 341 340 341 340 339 339 338 338
226 227 224 229 236 243 244 247 250 248 257 262 275 281 289 291 291 292 290 291 298 305 312 317 321 324 327 331 335 336 337 338 339 340 340 341 338 337 337 337 337 337 336 335 335 334 335 335 335
232 228 225 230 233 238 246 250 250 249 251 255 261 267 274 280 284 292 289 289 294 299 304 312 315 317 320 323 326 328 330 332 333 336 336 336 334 332 331 333 334 334 334 332 331 330 328 330 331
Height
5880 5878 5878 5876 5876 5876 5875 5874 5873 5872 5871 5870 5869 5869 5868 5868 5869 5870 5867 5866 5867 5866 5865 5866 5866 5866 5866 5866 5867 5867 5868 5868 5868 5869 5869 5870 5872 5872 5873 5874 5875 5876 5877 5878 5879 5880 5881 5882 5883
5883 5882 5879 5878 5880 5879 5878 5876 5874 5873 5873 5871 5870 5870 5869 5869 5869 5868 5868 5868 5868 5867 5867 5867 5868 5868 5868 5868 5868 5869 5869 5870 5870 5871 5871 5872 5873 5874 5875 5876 5877 5878 5879 5879 5880 5881 5882 5883 5884
5886 5883 5881 5884 5883 5881 5880 5878 5876 5875 5874 5872 5872 5872 5871 5870 5870 5869 5869 5869 5868 5868 5868 5868 5869 5869 5869 5870 5870 5870 5870 5871 5872 5872 5873 5874 5874 5875 5876 5877 5878 5879 5880 5880 5881 5882 5883 5884 5884
5886 5884 5887 5888 5886 5884 5882 5880 5878 5877 5875 5874 5873 5873 5872 5872 5871 5871 5870 5869 5869 5869 5870 5870 5870 5871 5871 5871 5872 5872 5872 5873 5873 5874 5875 5875 5876 5877 5878 5879 5880 5881 5881 5882 5883 5883 5884 5885 5885
5887 5889 5892 5890 5889 5887 5884 5882 5880 5879 5877 5876 5875 5874 5873 5873 5872 5872 5871 5870 5870 5870 5871 5872 5872 5872 5873 5873 5873 5873 5874 5874 5875 5876 5876 5877 5878 5879 5880 5880 5881 5882 5883 5883 5884 5884 5885 5886 5886
5892 5895 5895 5893 5892 5889 5887 5884 5882 5880 5879 5878 5877 5876 5875 5875 5874 5873 5873 5872 5872 5873 5873 5873 5874 5874 5874 5875 5875 5875 5875 5876 5877 5878 5878 5879 5880 5880 5881 5882 5882 5883 5884 5884 5885 5885 5886 5886 5887
5898 5900 5898 5897 5894 5891 5889 5887 5884 5882 5881 5880 5879 5878 5877 5877 5876 5875 5875 5875 5875 5875 5875 5876 5876 5876 5876 5877 5877 5877 5877 5878 5879 5879 5880 5881 5881 5882 5883 5883 5884 5884 5884 5885 5885 5886 5886 5887 5887
5904 5905 5901 5900 5897 5894 5892 5890 5887 5885 5884 5883 5881 5880 5879 5879 5878 5878 5878 5878 5877 5877 5878 5878 5878 5878 5878 5879 5879 5879 5880 5880 5881 5881 5882 5882 5883 5883 5884 5884 5885 5885 5885 5885 5886 5886 5887 5887 5888
5907 5908 5904 5903 5900 5897 5895 5893 5890 5888 5887 5885 5884 5883 5882 5882 5881 5881 5881 5881 5880 5880 5880 5880 5880 5880 5881 5881 5881 5882 5882 5882 5882 5883 5883 5884 5884 5885 5885 5886 5886 5886 5886 5886 5887 5887 5887 5888 5888
5911 5910 5907 5905 5903 5900 5898 5895 5893 5891 5889 5888 5887 5886 5885 5884 5884 5883 5883 5883 5883 5883 5882 5883 5883 5883 5883 5883 5883 5884 5884 5884 5885 5885 5885 5886 5886 5886 5886 5887 5887 5887 5887 5887 5887 5887 5888 5888 5889
5913 5912 5909 5907 5905 5903 5901 5898 5896 5895 5892 5891 5890 5889 5888 5887 5887 5886 5886 5886 5886 5885 5885 5885 5885 5885 5886 5886 5886 5886 5886 5886 5887 5887 5887 5887 5887 5887 5887 5888 5888 5888 5888 5888 5888 5888 5888 5889 5889
5916 5914 5912 5910 5908 5905 5904 5902 5900 5898 5897 5895 5894 5893 5892 5891 5890 5889 5889 5889 5888 5888 5888 5888 5888 5888 5888 5888 5888 5888 5888 5888 5888 5889 5889 5889 5889 5889 5889 5888 5888 5888 5888 5888 5888 5888 5888 5889 5889
5918 5916 5914 5912 5911 5908 5907 5905 5903 5901 5900 5898 5897 5896 5895 5894 5893 5893 5892 5892 5891 5891 5891 5891 5891 5891 5891 5891 5891 5890 5890 5890 5890 5890 5890 5890 5890 5890 5890 5889 5889 5889 5889 5889 5888 5888 5888 5889 5889
5919 5918 5917 5915 5913 5911 5910 5908 5907 5905 5903 5902 5901 5899 5898 5897 5897 5896 5895 5895 5895 5894 5894 5894 5893 5893 5893 5893 5893 5893 5893 5892 5892 5892 5891 5891 5891 5891 5890 5890 5890 5889 5889 5889 5888 5888 5888 5888 5888
5920 5921 5919 5918 5916 5914 5913 5911 5910 5908 5907 5905 5904 5903 5901 5900 5900 5899 5898 5898 5897 5897 5897 5896 5896 5896 5896 5896 5895 5895 5895 5894 5894 5894 5893 5892 5892 5892 5891 5891 5890 5890 5889 5889 5888 5887 5887 5888 5888
5922 5923 5922 5921 5919 5917 5918 5915 5913 5911 5910 5909 5907 5906 5904 5904 5903 5902 5901 5901 5900 5900 5899 5899 5898 5898 5898 5898 5897 5897 5896 5896 5896 5895 5894 5894 5893 5893 5892 5891 5891 5890 5889 5889 5888 5888 5887 5887 5887
5924 5925 5924 5924 5922 5921 5920 5917 5915 5914 5912 5911 5910 5908 5907 5906 5906 5905 5904 5903 5903 5902 5902 5901 5901 5900 5900 5900 5899 5899 5898 5897 5897 5896 5896 5895 5894 5893 5892 5892 5891 5890 5890 5889 5888 5888 5887 5886 5886
5926 5928 5927 5926 5924 5923 5922 5920 5918 5916 5915 5914 5912 5911 5910 5909 5908 5907 5907 5906 5905 5905 5904 5904 5903 5902 5902 5902 5901 5900 5899 5899 5898 5897 5896 5896 5895 5894 5892 5892 5891 5890 5889 5888 5888 5887 5886 5885 5885
5928 5928 5928 5927 5925 5925 5923 5921 5920 5918 5918 5916 5915 5913 5912 5912 5911 5910 5909 5908 5907 5907 5906 5905 5905 5904 5904 5903 5903 5902 5901 5900 5899 5898 5897 5896 5895 5894 5893 5892 5891 5890 5890 5889 5887 5887 5886 5885 5884
5926 5927 5927 5927 5926 5926 5925 5924 5922 5921 5920 5919 5917 5915 5915 5914 5913 5912 5911 5910 5909 5909 5908 5907 5907 5906 5905 5905 5904 5903 5902 5901 5900 5899 5898 5897 5896 5894 5893 5892 5891 5890 5889 5888 5887 5886 5885 5884 5883
5925 5926 5927 5928 5927 5926 5925 5924 5923 5922 5921 5920 5919 5918 5917 5916 5915 5914 5913 5912 5911 5910 5910 5909 5908 5908 5907 5906 5905 5905 5904 5902 5901 5900 5899 5898 5896 5895 5894 5892 5891 5890 5889 5888 5887 5886 5885 5884 5883
5923 5925 5926 5927 5926 5926 5926 5925 5923 5923 5922 5921 5920 5919 5919 5918 5917 5915 5914 5914 5913 5912 5911 5911 5910 5909 5908 5907 5907 5906 5905 5903 5902 5901 5900 5899 5897 5896 5894 5893 5891 5890 5889 5888 5887 5886 5884 5883 5882
5921 5923 5924 5925 5926 5926 5926 5925 5925 5923 5923 5922 5921 5920 5920 5919 5918 5917 5916 5915 5914 5913 5912 5912 5911 5910 5910 5909 5908 5907 5905 5904 5903 5902 5900 5899 5898 5896 5895 5894 5892 5891 5889 5888 5887 5885 5884 5882 5881
5918 5920 5922 5923 5924 5925 5924 5925 5924 5922 5922 5923 5922 5921 5920 5920 5919 5918 5917 5916 5915 5915 5914 5913 5912 5911 5910 5909 5908 5907 5906 5905 5903 5902 5901 5899 5898 5897 5895 5894 5893 5891 5889 5888 5886 5884 5883 5881 5879
5915 5917 5919 5919 5920 5922 5924 5924 5923 5922 5923 5922 5922 5921 5921 5920 5919 5918 5918 5917 5916 5916 5915 5914 5913 5912 5911 5910 5909 5908 5906 5905 5904 5902 5901 5900 5898 5897 5895 5894 5892 5891 5889 5887 5886 5884 5882 5880 5878
5912 5915 5917 5918 5919 5920 5920 5921 5921 5921 5921 5921 5921 5921 5920 5920 5919 5919 5918 5917 5917 5916 5916 5915 5914 5913 5912 5910 5909 5908 5906 5905 5904 5902 5901 5899 5898 5896 5895 5893 5892 5890 5889 5887 5885 5883 5881 5879 5877
5909 5911 5914 5917 5918 5919 5918 5919 5920 5919 5919 5919 5920 5920 5919 5919 5919 5918 5917 5917 5917 5916 5916 5915 5914 5913 5912 5910 5909 5908 5906 5905 5903 5902 5900 5899 5897 5896 5894 5893 5891 5890 5888 5886 5884 5882 5880 5878 5876
5905 5908 5911 5912 5913 5914 5916 5916 5918 5918 5917 5918 5919 5918 5918 5918 5917 5917 5916 5916 5916 5916 5915 5914 5913 5913 5912 5910 5909 5907 5906 5904 5902 5901 5899 5898 5897 5895 5894 5892 5891 5889 5887 5885 5883 5881 5879 5877 5875
5900 5903 5906 5908 5910 5911 5912 5916 5915 5915 5914 5915 5916 5917 5917 5917 5916 5916 5915 5914 5915 5915 5914 5914 5913 5912 5911 5910 5908 5907 5905 5903 5901 5900 5898 5897 5895 5894 5893 5891 5890 5888 5886 5883 5881 5879 5878 5876 5874
5896 5898 5902 5905 5907 5908 5908 5912 5912 5911 5912 5914 5914 5914 5915 5915 5914 5914 5913 5912 5913 5913 5912 5912 5911 5910 5909 5908 5907 5905 5903 5902 5901 5899 5897 5896 5894 5893 5891 5890 5888 5886 5884 5881 5879 5877 5875 5874 5872